This is the latest recevied weather packets stored in our database for station/object K8WEH. If no packets are shown the sender has not sent any weather packets the latest 10 day(s).
| Time | Temp. | Humidity | Pressure | Rain* | Wind** | Luminosity | Snow |
|---|---|---|---|---|---|---|---|
| 1788574824 | 23.89° C | 29% | 1015.3 hPa | 0 mm | - | - | - |
| 1788574521 | 23.89° C | 29% | 1015.2 hPa | 0 mm | - | - | - |
| 1788574223 | 23.89° C | 30% | 1015.1 hPa | 0 mm | - | - | - |
| 1788573919 | 23.89° C | 31% | 1015.1 hPa | 0 mm | - | - | - |
| 1788573618 | 23.89° C | 32% | 1015.1 hPa | 0 mm | - | - | - |
| 1788573316 | 24.44° C | 32% | 1015.2 hPa | 0 mm | - | - | - |
| 1788573016 | 24.44° C | 32% | 1015.1 hPa | 0 mm | - | - | - |
| 1788572714 | 24.44° C | 31% | 1015.2 hPa | 0 mm | - | - | - |
| 1788572414 | 24.44° C | 31% | 1015.1 hPa | 0 mm | - | - | - |
| 1788572111 | 24.44° C | 32% | 1015.1 hPa | 0 mm | - | - | - |
| 1788571811 | 25° C | 33% | 1015 hPa | 0 mm | - | - | - |
| 1788571507 | 25° C | 34% | 1015 hPa | 0 mm | - | - | - |
| 1788571206 | 25° C | 34% | 1014.9 hPa | 0 mm | - | - | - |
| 1788570913 | 25° C | 34% | 1014.7 hPa | 0 mm | - | - | - |
| 1788570634 | 25.56° C | 35% | 1014.8 hPa | 0 mm | - | - | - |
| 1788570302 | 25.56° C | 36% | 1014.8 hPa | 0 mm | - | - | - |
| 1788570069 | 25.56° C | 37% | 1014.8 hPa | 0 mm | - | - | - |
| 1788569761 | 25.56° C | 44% | 1014.7 hPa | 0 mm | - | - | - |
| 1788569458 | 25.56° C | 41% | 1014.6 hPa | 0 mm | - | - | - |
| 1788569156 | 26.11° C | 38% | 1014.5 hPa | 0 mm | - | - | - |
| 1788568855 | 26.11° C | 35% | 1014.2 hPa | 0 mm | - | - | - |
| 1788568553 | 26.11° C | 36% | 1014.1 hPa | 0 mm | - | - | - |
| 1788568252 | 26.11° C | 38% | 1014.1 hPa | 0 mm | - | - | - |
| 1788567950 | 26.67° C | 39% | 1014 hPa | 0 mm | - | - | - |
| 1788567649 | 26.67° C | 42% | 1013.9 hPa | 0 mm | - | - | - |
* Rain latest hour (hover to see other rain measurements)
** Current wind speed in m/s (hover to see current wind gust speed)